Theta_e
332 331 330 330 329 328 329 329 328 327 328 329 327 328 330 331 330 325 324 327 327 327 327 328 328 327 326 326 325 327 328 328 330 332 333 333 333 333 332 331 328 321 318 315 312 310 309 309 309 308 308 307 308 307 307 307 306 306 306 306 306 306 306 307 307 307 308 308 307 308 308 308 308 308 309 309 310 311 311 310 309 308 307 306 305
332 331 329 328 327 326 328 329 328 328 328 329 329 329 329 330 331 329 327 326 326 328 327 328 328 327 327 327 327 327 326 327 330 331 331 332 333 333 332 331 328 322 318 316 314 312 309 309 308 308 308 307 307 307 307 306 306 306 306 306 306 305 306 306 306 307 307 307 307 307 307 308 308 308 308 309 309 310 311 311 310 309 308 307 306
330 328 327 327 328 328 329 329 329 328 329 329 330 330 330 330 330 330 329 327 327 328 328 328 328 327 327 327 327 328 327 326 328 329 330 330 332 333 332 331 329 325 320 316 316 314 311 309 308 308 307 307 307 306 306 306 306 306 306 306 306 306 305 305 305 306 306 306 307 307 307 307 307 308 308 308 309 309 310 311 311 310 309 309 307
329 328 329 329 329 329 330 330 330 330 330 330 330 330 330 330 330 330 330 328 327 328 328 328 327 327 327 327 326 327 327 327 327 327 329 329 330 332 331 330 329 327 324 320 318 315 314 310 309 308 308 307 306 306 306 305 305 305 305 305 306 305 305 305 305 305 305 305 306 306 306 307 307 307 308 309 309 309 309 310 311 311 310 310 309
330 330 330 330 330 329 330 331 331 331 331 330 330 330 329 329 330 330 330 329 328 328 328 327 327 326 326 326 326 326 327 327 327 327 328 328 329 331 331 330 329 328 327 326 322 318 315 312 310 309 309 308 307 307 306 306 306 306 306 305 305 305 305 305 305 305 305 304 305 305 305 305 306 307 307 308 308 309 309 309 310 311 311 311 309
331 330 330 330 330 329 330 331 331 332 331 330 330 329 329 329 329 329 329 329 329 328 328 328 327 326 326 325 326 326 327 326 326 326 328 328 329 331 330 329 329 328 327 327 327 323 319 315 313 313 311 310 309 309 308 307 307 306 307 306 305 305 305 305 305 305 305 304 304 304 305 305 305 305 306 307 307 308 309 309 310 310 311 311 310
331 330 330 329 329 328 329 330 330 331 330 329 329 329 329 328 327 326 326 328 329 328 327 328 326 326 325 325 325 326 326 326 325 325 328 329 330 330 330 330 329 329 328 327 328 327 325 320 316 315 314 314 313 312 311 310 310 310 309 308 308 307 307 307 306 306 305 305 305 304 305 305 305 305 305 306 306 307 308 309 310 310 310 310 310
330 330 330 329 328 328 329 330 330 330 329 329 330 329 328 327 325 324 326 328 329 328 328 327 326 325 325 324 325 325 326 327 327 326 327 329 329 328 330 330 330 329 329 328 328 328 328 325 321 319 317 316 315 315 314 313 313 312 312 312 311 311 310 310 310 309 308 308 307 306 306 305 306 305 305 305 306 307 308 309 309 309 310 310 310
329 329 329 329 329 329 329 329 329 329 329 329 329 329 328 327 326 326 326 328 329 329 328 327 325 325 325 324 324 325 326 327 328 328 327 327 327 328 329 331 330 330 329 328 328 328 328 328 327 325 322 321 319 318 317 316 315 315 314 314 313 313 313 312 312 312 311 311 311 310 309 308 307 306 306 306 306 307 308 308 309 310 310 310 310
328 328 328 328 329 329 329 329 329 329 329 329 329 329 329 328 328 328 328 329 329 329 328 327 325 325 324 324 323 324 325 327 328 328 328 327 327 327 329 330 330 330 330 329 329 329 329 329 329 328 327 327 325 323 321 320 318 317 316 316 315 315 314 314 314 313 313 313 313 313 312 311 309 308 308 307 307 307 308 308 309 310 309 310 310
326 325 326 327 327 327 327 328 328 328 329 329 330 329 329 329 328 329 329 330 330 329 328 326 326 326 323 320 321 323 324 326 328 328 328 327 327 327 327 328 328 329 330 330 329 329 329 329 329 328 328 329 329 327 325 323 321 319 318 317 316 316 316 315 315 315 315 315 315 314 314 312 311 310 309 309 308 307 307 308 308 310 310 310 309
323 324 324 325 325 324 324 325 326 328 328 329 329 329 329 329 328 329 329 329 330 329 328 327 327 326 323 320 320 323 325 326 327 328 328 328 328 328 328 327 327 327 328 329 329 329 329 329 329 329 329 330 330 329 328 325 322 321 322 321 319 318 318 317 317 316 317 316 316 316 315 314 313 312 311 311 310 309 308 308 308 309 310 310 310
321 321 322 322 322 322 321 320 322 324 326 327 328 328 329 328 328 328 329 329 329 329 328 327 327 327 326 324 322 323 324 325 326 327 327 327 327 327 327 327 327 327 327 327 328 329 329 329 329 330 330 330 330 330 330 327 324 325 327 326 323 321 320 319 319 318 318 318 318 317 317 317 316 315 314 313 312 312 311 310 309 308 309 310 310
319 319 318 318 319 319 319 319 320 321 324 326 326 327 328 328 328 328 329 329 328 328 328 328 328 328 327 326 325 324 323 323 323 325 326 326 327 326 326 326 327 327 327 327 327 327 328 330 330 330 330 330 330 330 330 329 327 328 329 328 327 325 322 320 320 320 320 320 319 319 319 319 319 319 318 317 314 312 313 312 310 308 308 309 310
316 317 317 318 319 319 320 321 321 321 323 324 325 326 327 327 327 328 328 328 328 328 328 329 328 328 328 328 327 326 324 322 321 323 325 326 326 326 326 326 326 327 327 327 327 327 327 328 329 329 329 330 330 330 330 330 329 329 330 329 328 327 324 321 321 321 322 322 321 320 321 321 321 321 322 322 319 314 312 313 312 310 308 308 308
315 315 316 319 320 319 319 321 322 322 322 323 324 325 325 325 325 326 326 327 328 328 328 328 328 328 328 327 327 326 324 323 322 322 323 325 325 325 326 326 326 326 327 327 327 327 327 327 328 328 328 328 329 330 330 330 330 330 330 330 329 328 327 324 322 323 324 323 323 323 324 323 323 323 323 324 324 320 315 314 315 314 311 308 307
318 319 319 320 319 319 319 319 321 321 322 322 323 324 324 324 324 325 326 327 328 327 327 327 327 328 328 327 327 326 325 325 324 323 322 323 322 324 326 326 326 326 326 327 327 327 327 327 327 327 327 327 328 329 329 329 330 330 330 329 329 328 328 326 324 325 326 326 325 325 325 325 325 324 324 324 324 324 321 317 316 317 316 312 310
320 320 320 320 319 319 319 319 319 320 321 321 322 323 323 324 324 324 325 327 328 327 327 327 327 327 327 327 327 326 326 325 325 324 323 322 321 322 324 324 324 325 326 326 326 327 327 327 327 327 327 326 327 327 328 329 329 330 330 329 329 329 329 328 327 326 327 328 327 326 325 325 325 325 325 325 325 325 324 321 318 317 318 317 316
316 317 318 319 320 318 317 318 319 319 320 320 320 320 320 321 322 323 325 326 326 327 327 327 327 327 327 327 327 326 326 326 326 324 323 323 321 321 322 323 322 323 325 325 325 325 326 326 327 327 327 327 327 328 328 328 329 329 329 329 329 329 329 329 328 328 328 328 329 328 327 327 326 326 326 326 326 325 325 325 322 319 319 319 319
310 311 314 317 319 317 316 316 316 316 317 318 319 320 319 318 319 320 322 325 325 325 325 325 325 326 326 327 327 326 326 326 326 326 324 323 323 323 323 324 324 324 324 324 324 325 325 326 326 326 327 328 328 328 328 329 329 329 328 329 329 329 329 329 328 328 328 328 328 328 328 328 328 327 327 328 328 327 327 326 325 324 322 320 320
306 307 311 316 317 315 314 313 311 309 310 310 314 316 315 316 319 319 319 323 324 324 324 325 325 325 325 325 325 325 325 325 326 326 325 324 324 324 324 324 323 323 323 324 323 324 324 325 325 325 326 327 327 327 328 328 328 328 328 329 329 329 329 329 329 329 328 328 327 327 327 328 328 328 329 328 328 328 328 328 327 327 325 324 322
306 306 309 312 313 312 311 309 307 306 306 306 307 307 307 311 315 317 318 320 320 321 322 322 323 324 323 323 323 324 324 324 325 327 326 325 325 325 325 323 322 322 322 323 322 320 321 321 322 325 324 323 326 327 327 326 325 324 325 326 328 329 329 329 329 329 328 328 328 328 328 328 329 329 329 329 329 328 328 328 328 327 327 327 326
307 306 307 308 309 308 307 307 306 306 306 306 306 306 306 307 307 310 315 317 316 317 317 315 317 320 321 321 321 322 323 324 324 325 325 324 324 324 324 323 322 322 321 320 318 316 317 318 318 321 320 319 321 323 324 324 322 321 321 322 323 326 326 326 326 326 327 329 329 329 329 329 329 329 329 328 328 329 328 328 328 328 328 328 327
307 307 307 307 307 307 306 306 306 307 307 307 307 306 306 306 305 306 308 310 311 312 312 309 310 314 315 316 318 319 320 321 322 323 323 322 323 323 323 321 320 322 321 318 315 314 315 317 316 317 317 317 316 316 317 319 319 317 316 317 320 322 324 324 325 326 328 329 329 329 328 329 329 329 329 328 328 327 328 329 329 329 329 329 328
307 307 307 307 307 307 307 307 307 307 307 307 307 307 307 306 307 306 306 306 307 307 306 306 307 310 312 314 316 317 317 319 320 320 319 317 315 316 318 318 318 319 318 315 314 314 315 316 317 317 318 318 317 315 315 316 316 315 316 320 322 324 325 325 325 325 327 327 327 327 327 327 328 327 327 327 328 327 328 328 328 329 329 329 329
307 307 307 307 307 307 307 307 307 307 307 307 307 307 306 306 306 306 306 306 306 306 306 305 306 307 308 310 311 312 312 314 314 312 310 308 306 306 309 314 316 316 315 314 314 315 315 317 318 319 319 320 319 318 318 319 319 319 322 324 325 326 326 325 324 324 324 324 324 324 324 324 324 324 325 325 325 326 326 327 328 328 328 328 328
308 308 307 307 307 307 307 307 307 307 307 307 306 306 306 306 306 306 306 306 306 306 305 305 305 305 305 305 305 306 306 306 306 305 305 305 304 304 305 308 312 313 313 313 314 315 316 317 318 319 319 319 319 319 320 321 323 324 325 325 325 325 325 324 323 323 323 322 322 322 321 321 320 320 321 322 323 324 325 325 326 326 327 327 327
309 309 309 308 308 308 307 307 307 307 307 306 306 306 306 306 305 305 306 306 305 305 304 304 304 304 304 304 304 303 303 303 303 304 304 304 303 304 304 305 307 309 312 313 314 314 315 316 317 317 318 318 319 320 321 322 323 325 325 324 324 324 323 322 322 322 321 321 321 321 320 319 318 316 316 316 318 321 323 325 325 325 326 326 327
312 311 311 310 310 309 309 309 308 308 308 307 307 307 306 306 306 306 306 305 305 304 304 304 303 304 304 303 303 303 303 303 303 303 303 303 303 303 303 304 305 306 310 312 312 312 312 313 314 315 315 316 318 321 322 323 324 324 324 323 323 322 321 320 320 320 320 320 319 319 318 317 315 314 313 312 312 313 315 319 323 325 326 326 326
315 313 312 312 311 311 311 311 311 310 309 309 308 307 307 306 306 306 306 306 305 305 304 304 304 303 303 303 303 303 303 303 303 303 303 303 303 303 303 303 303 303 305 308 309 309 308 308 310 311 312 311 312 314 317 320 321 321 322 321 320 319 318 316 316 316 315 315 314 312 310 309 308 308 309 308 307 306 307 310 316 321 324 326 326
317 315 314 314 314 314 313 313 312 312 311 311 310 309 308 308 307 307 307 306 306 305 305 305 305 304 304 304 304 303 303 303 303 303 303 303 303 303 303 303 303 303 303 304 305 305 306 305 305 306 307 307 306 306 307 309 311 313 314 315 315 314 312 311 310 309 308 308 307 306 305 305 305 307 308 308 307 306 306 306 308 314 319 323 325
317 317 317 317 318 317 317 316 315 314 313 313 313 312 311 310 309 308 308 308 307 307 306 306 306 306 305 304 305 305 304 304 304 304 304 304 304 304 304 304 304 305 305 305 305 305 305 305 305 305 305 305 305 305 304 304 304 305 306 307 307 307 307 306 305 305 305 305 305 306 306 306 307 308 310 310 310 309 309 308 307 308 312 317 321
318 318 318 319 319 319 318 318 318 318 317 316 316 315 314 313 311 310 309 308 308 308 307 307 307 306 306 305 305 305 305 305 305 305 305 305 306 305 305 306 306 307 307 308 308 308 307 307 307 308 308 307 307 307 306 306 305 305 304 304 304 303 303 303 303 304 305 306 307 307 307 307 308 308 309 310 310 310 310 310 310 310 310 312 314
319 319 319 320 319 320 319 319 319 319 319 319 319 318 317 316 314 313 312 311 310 309 309 309 308 308 307 307 306 306 306 305 306 306 306 306 306 306 306 306 306 306 307 307 308 308 309 309 309 309 309 309 309 308 308 308 308 307 307 306 305 304 304 304 304 304 304 306 307 308 308 308 308 308 308 308 309 310 311 311 311 312 311 312 312
320 320 320 320 320 320 320 320 320 320 319 319 319 319 319 319 318 317 317 316 314 313 311 310 310 310 309 308 308 307 306 306 305 305 306 306 306 306 306 306 305 305 305 306 306 307 307 308 309 308 309 309 309 308 308 307 307 307 307 307 306 306 305 305 305 304 305 306 307 308 308 308 308 307 307 307 308 309 310 310 311 311 312 313 313
320 320 320 320 320 321 320 320 320 320 319 318 319 319 319 319 319 319 319 319 319 317 315 314 313 313 312 311 310 309 308 307 306 306 305 305 306 306 305 305 304 304 304 304 304 304 305 306 307 307 308 308 308 307 307 307 306 305 305 305 305 305 305 305 305 305 306 306 307 308 309 309 308 309 309 309 309 309 309 310 310 310 310 311 312
320 320 320 320 320 321 321 321 321 320 319 318 318 319 319 319 319 319 319 319 319 319 319 318 317 316 315 314 312 311 310 309 308 307 306 305 306 305 305 304 304 304 304 303 303 303 303 304 305 306 307 307 308 307 306 305 305 305 305 304 304 304 304 305 305 306 306 306 307 307 308 308 307 308 308 308 309 309 308 308 308 309 310 310 310
320 320 320 319 320 321 321 321 321 321 319 317 317 318 318 319 318 317 318 318 318 319 319 319 318 317 317 316 314 313 312 311 310 308 307 307 307 307 305 304 304 304 304 303 303 303 303 303 304 305 306 306 307 307 306 304 304 304 304 304 303 302 302 302 303 304 305 305 306 307 307 308 308 308 307 307 307 306 306 306 306 307 308 309 310
320 320 319 319 319 319 319 320 320 320 319 317 317 317 318 318 316 314 316 317 317 318 318 318 318 317 317 316 315 314 314 314 313 311 310 309 310 310 308 307 305 305 304 304 304 303 303 304 304 304 305 305 305 305 305 304 302 301 302 303 304 304 302 302 301 301 301 302 303 304 305 306 306 306 306 305 305 305 305 305 305 306 307 308 308
320 320 320 320 320 319 319 319 319 319 318 318 319 319 318 317 315 313 315 317 317 317 318 318 318 318 317 316 316 315 314 315 314 313 312 311 311 312 312 310 309 309 307 305 304 304 303 304 303 303 304 304 304 304 303 303 303 303 302 302 303 304 304 303 301 300 299 299 299 300 301 301 302 302 303 303 304 305 306 306 306 307 308 308 309
319 319 319 319 320 319 319 320 319 319 319 319 320 320 319 318 316 316 317 317 318 318 318 318 318 317 317 317 316 316 315 315 315 314 313 312 312 312 312 312 311 310 309 307 305 305 304 303 303 302 303 304 304 303 304 304 302 302 302 301 300 301 302 302 302 300 299 299 299 299 299 300 301 301 302 303 304 306 306 306 306 306 307 306 307
315 316 317 316 316 316 317 317 318 319 320 320 320 320 320 319 318 318 318 319 320 319 319 318 318 318 317 317 317 316 316 315 315 314 314 313 313 313 312 312 310 309 309 308 307 305 304 303 303 302 302 304 304 302 302 302 301 300 301 300 300 300 300 301 302 302 300 299 299 299 299 299 300 300 301 301 302 304 305 306 306 305 304 302 301
313 315 316 316 315 315 315 315 315 315 317 318 320 320 320 320 319 319 319 319 320 319 319 319 319 318 317 317 317 316 316 315 315 314 313 313 313 312 312 311 310 310 309 307 306 305 304 302 302 301 301 302 303 302 300 300 299 299 299 299 299 299 299 298 300 301 301 300 299 299 299 299 298 298 299 299 299 300 300 301 302 301 301 300 299
311 313 314 314 315 315 315 315 315 314 313 314 315 318 319 320 320 320 320 320 320 319 319 319 319 318 317 317 316 316 316 315 314 314 313 312 311 311 310 310 310 310 309 307 306 304 302 301 300 301 300 300 300 300 299 298 298 298 298 298 297 297 297 297 297 299 299 298 298 298 299 299 299 298 298 298 298 298 299 299 299 299 298 299 299
311 311 311 312 312 313 314 314 315 315 314 313 312 313 314 316 318 319 319 319 319 319 319 319 318 318 317 316 316 316 315 314 313 313 312 311 311 310 309 309 309 309 308 308 306 303 300 299 299 300 300 299 298 298 297 296 297 297 297 297 296 296 296 296 297 297 298 298 297 297 298 299 299 298 299 299 299 298 298 299 298 299 299 299 299
308 307 308 308 309 311 312 312 313 313 314 314 314 312 311 312 314 315 316 316 316 317 318 318 318 317 316 316 316 315 314 313 313 313 312 311 310 310 309 309 309 308 308 307 305 301 299 299 299 300 300 298 297 297 296 296 296 296 296 296 296 296 296 296 296 296 297 297 297 296 297 298 298 298 298 299 299 298 298 298 299 299 299 299 299
304 304 304 304 304 306 307 309 310 311 312 313 314 314 313 313 313 313 314 315 315 315 316 317 317 316 316 316 315 314 313 313 312 312 312 311 310 309 309 309 308 307 307 306 304 300 299 299 299 299 298 297 297 296 296 296 296 295 295 295 295 295 295 296 296 296 296 296 296 296 296 297 297 298 298 298 298 298 298 298 299 299 299 299 299
302 303 303 303 302 302 303 304 305 307 309 311 312 312 313 313 313 312 313 314 314 314 314 315 315 315 315 315 314 313 312 312 312 311 310 309 308 308 309 309 308 307 306 305 302 300 299 298 298 298 298 297 297 296 296 296 295 295 295 295 295 295 295 295 295 295 296 296 296 295 295 296 296 297 297 297 297 298 298 298 299 299 300 300 300
303 303 303 303 302 302 302 302 302 303 305 308 310 311 311 312 313 313 312 313 314 315 315 315 315 315 314 314 313 312 311 311 310 309 308 308 307 307 307 307 306 304 303 302 300 298 298 298 298 298 297 297 296 296 295 295 295 294 294 294 294 294 294 294 294 295 296 296 296 295 295 295 296 296 296 297 297 297 297 297 298 299 299 301 301
306 306 305 303 302 302 302 302 302 302 303 306 309 311 311 312 313 313 313 313 314 315 315 315 314 314 313 313 311 310 309 309 309 308 308 307 306 305 304 303 302 301 300 299 298 298 298 298 297 297 296 296 295 295 295 294 294 294 294 294 294 294 294 294 294 294 295 295 295 295 295 295 295 295 295 296 296 296 296 297 297 298 299 300 301
306 307 306 304 303 303 303 303 303 304 304 306 308 310 311 312 313 314 314 314 314 314 314 313 313 312 312 311 310 309 309 309 309 308 306 305 303 302 302 301 300 299 299 298 298 298 297 297 296 295 295 294 294 294 294 294 294 294 294 294 293 293 293 293 293 293 294 294 294 294 294 294 294 294 295 295 296 296 296 296 297 297 298 299 300
Wind_Speed
8 7 7 7 6 5 7 9 9 9 8 8 8 9 8 6 7 9 12 13 12 11 10 8 9 9 8 8 7 6 6 6 4 4 6 7 6 4 3 3 4 3 1 1 3 5 7 7 8 9 9 9 9 8 7 7 8 7 7 8 7 7 6 6 5 4 3 2 2 2 2 3 4 5 6 7 7 8 8 9 10 10 11 11 11
9 9 9 8 7 7 9 10 11 10 9 10 9 9 8 7 7 8 10 12 12 11 9 8 8 8 7 8 7 7 8 8 7 5 4 6 7 5 3 3 3 2 1 1 2 4 6 7 7 9 9 9 9 9 8 8 8 8 8 8 8 7 7 6 6 5 4 2 2 1 1 1 2 3 4 5 6 6 7 8 8 9 9 10 11
10 10 9 9 8 9 10 10 11 10 10 11 11 10 9 8 7 6 8 11 11 10 8 8 9 8 9 11 11 10 9 9 9 7 5 5 6 4 3 2 2 2 2 0 1 2 5 6 7 7 8 8 9 9 9 8 8 8 8 7 6 7 6 6 6 5 4 3 2 1 1 1 1 1 2 3 4 5 5 6 7 7 8 8 9
11 11 9 8 8 9 10 11 10 11 11 10 10 10 9 9 9 7 7 10 11 11 10 10 10 10 10 13 14 14 12 11 10 8 6 5 5 4 3 2 2 2 2 1 0 1 3 5 6 5 6 7 7 8 8 8 8 8 8 7 6 5 5 5 5 4 4 4 3 3 2 2 1 1 1 2 3 3 4 4 5 6 6 7 7
11 11 10 8 8 9 11 11 11 11 11 10 10 10 9 10 10 9 9 9 11 14 13 12 12 11 11 11 13 15 16 14 13 10 7 5 5 6 4 2 2 1 1 1 1 0 1 3 5 5 5 5 6 6 6 6 7 7 7 7 6 5 4 5 5 5 4 4 4 4 4 4 3 3 2 2 1 2 2 3 3 4 4 5 6
11 11 10 9 9 9 10 10 10 11 10 10 10 10 9 9 10 11 12 10 11 15 16 15 15 13 11 11 10 13 16 15 15 12 9 7 6 6 5 4 3 1 1 1 1 0 1 2 3 4 4 4 5 4 4 4 5 5 5 5 5 5 4 4 4 5 5 5 5 5 5 5 5 5 4 4 3 2 1 1 1 2 3 3 4
10 11 10 10 10 9 10 10 9 10 11 10 10 10 11 10 11 11 12 11 11 14 18 17 17 14 12 13 11 11 11 11 13 13 12 11 9 8 7 6 5 3 2 2 2 1 0 1 2 2 3 3 4 4 3 4 4 4 4 3 4 4 4 3 3 4 5 5 6 6 6 6 6 6 5 5 4 4 3 2 1 0 1 2 3
8 9 9 9 9 9 9 9 9 10 11 10 11 11 12 12 12 11 11 11 12 14 18 18 18 16 13 14 14 13 10 7 9 12 14 14 12 10 11 10 8 6 4 3 2 2 1 1 2 2 2 3 4 4 3 3 3 3 3 2 3 4 3 3 2 3 4 4 5 5 6 6 7 7 6 6 6 5 4 4 3 2 1 0 1
8 9 8 7 7 8 9 9 9 10 10 10 11 12 12 12 11 11 12 13 13 14 16 18 19 18 14 14 15 16 14 9 8 10 13 15 13 11 13 13 10 9 8 5 4 3 2 2 2 2 3 2 2 3 3 3 3 3 3 2 2 3 3 2 2 2 2 2 3 5 6 6 7 8 7 7 6 6 5 4 4 3 2 1 0
8 7 7 7 7 7 8 9 10 10 10 11 12 12 12 11 11 12 13 14 14 14 15 15 17 18 16 16 17 17 17 12 9 8 9 12 14 12 12 13 12 11 11 9 7 5 3 3 3 3 3 3 2 2 3 3 3 3 3 2 2 2 2 2 3 3 2 2 2 3 5 6 7 8 8 7 7 7 6 5 4 4 3 2 2
7 6 5 6 5 5 6 7 7 8 9 11 12 12 12 12 12 12 13 14 14 15 15 14 14 15 14 15 17 17 17 15 12 9 8 10 12 13 12 12 12 12 13 13 10 7 6 4 4 4 3 3 3 3 4 3 3 3 2 3 3 2 3 3 4 3 3 3 2 3 4 4 5 6 7 7 7 7 6 5 5 4 4 3 3
7 7 6 6 5 5 4 4 3 4 5 8 9 10 11 11 11 12 12 13 15 16 15 13 13 12 10 10 14 16 16 16 16 13 11 11 11 12 12 11 10 10 12 14 13 10 9 7 5 5 4 3 3 4 5 4 3 2 2 2 2 2 3 4 4 4 4 3 2 2 3 3 4 4 4 4 5 5 5 5 5 5 4 4 4
6 7 8 6 5 3 2 2 2 3 3 4 5 6 7 7 9 11 12 12 13 15 16 14 14 13 10 9 12 15 15 17 18 17 14 12 12 12 12 11 9 7 9 11 14 13 11 9 7 6 6 5 4 4 5 5 4 2 1 2 2 3 4 4 4 4 4 4 2 2 3 3 4 4 4 4 4 4 4 4 4 5 5 5 5
5 6 7 6 4 2 1 2 3 3 3 3 3 3 5 6 8 10 10 11 11 13 15 15 15 13 12 11 11 14 16 17 19 19 16 15 15 14 13 12 10 7 7 8 11 13 13 11 10 9 8 8 7 6 5 6 5 4 2 2 3 4 4 4 5 5 4 4 3 2 3 3 4 4 5 5 5 4 3 3 3 4 5 6 6
6 5 5 5 4 2 2 3 4 5 5 4 4 4 5 5 7 8 8 9 9 11 13 13 13 12 11 11 10 10 12 12 15 18 18 17 17 16 15 15 14 11 8 7 7 10 12 12 12 11 11 11 10 8 7 7 8 7 5 5 4 5 5 5 5 5 5 5 3 3 2 2 3 4 4 5 5 5 3 2 2 3 4 5 6
6 5 4 4 3 2 1 3 4 5 6 6 5 4 4 4 4 6 7 8 8 9 11 11 11 10 9 9 8 8 7 7 10 15 18 18 17 17 15 14 16 14 10 7 7 7 8 10 11 11 11 12 12 11 10 9 10 10 9 8 7 7 7 7 6 7 7 6 6 6 5 4 4 4 5 5 5 5 4 3 2 3 3 4 6
7 5 4 4 4 2 1 2 3 3 4 4 4 3 2 3 2 3 5 6 7 8 10 10 10 11 11 9 7 6 7 6 7 10 15 18 18 17 14 12 12 12 10 9 8 7 7 8 9 10 11 11 12 12 11 12 12 12 11 10 9 9 9 8 8 8 9 9 8 8 8 7 6 6 7 7 6 6 5 4 3 4 4 4 5
7 7 6 6 6 5 3 1 1 1 3 2 3 3 1 1 1 2 2 4 5 5 6 7 8 10 12 11 8 6 6 7 7 6 8 13 16 16 14 13 11 11 11 11 10 9 8 8 9 10 11 11 11 12 12 13 12 12 11 10 10 10 10 10 10 9 11 12 12 11 10 10 8 8 9 9 9 8 7 5 4 5 6 5 5
6 7 8 8 7 6 5 2 1 2 2 3 3 3 3 3 2 1 1 2 4 3 3 5 6 8 10 11 11 8 6 6 7 6 5 7 11 13 14 14 13 12 11 11 11 11 10 11 10 10 11 11 12 11 10 11 11 11 10 10 10 11 11 12 12 12 12 13 13 14 14 13 12 11 11 11 11 10 8 7 6 6 7 8 8
5 6 8 9 7 6 4 3 3 3 4 6 6 6 6 5 4 1 1 1 4 4 4 4 4 6 9 10 10 10 9 8 7 7 6 5 6 9 10 10 10 10 9 9 9 10 12 14 14 13 12 12 11 11 12 12 12 12 11 11 11 11 12 13 13 13 13 13 13 14 15 15 15 15 13 13 12 11 10 10 9 8 7 8 9
7 6 7 8 6 5 4 4 3 1 2 4 6 6 7 6 5 4 3 2 3 4 4 4 5 6 7 9 8 8 9 10 9 8 7 5 5 6 7 7 6 5 5 5 4 5 7 9 12 15 16 16 14 13 14 15 14 11 9 9 10 10 11 13 14 14 15 15 15 15 15 15 16 16 15 15 14 13 13 12 12 11 10 10 9
8 8 8 7 6 5 5 5 5 6 6 4 2 1 1 3 4 5 4 3 3 3 2 2 4 5 6 7 7 6 7 8 8 9 8 6 6 6 6 5 6 5 4 4 3 2 3 4 7 10 11 13 15 14 12 12 12 9 6 6 8 9 10 11 13 14 15 17 17 17 17 17 17 17 17 17 16 16 15 15 15 15 15 14 12
9 9 8 7 7 7 7 7 6 7 8 8 8 8 7 5 2 2 4 4 3 3 3 4 4 5 5 5 5 4 4 4 5 6 6 6 6 5 5 5 6 6 6 5 4 3 3 3 5 6 6 8 13 14 11 9 8 6 8 8 9 9 9 10 11 13 14 16 19 20 19 17 17 18 18 17 18 19 19 18 18 17 17 17 16
10 9 9 8 8 8 8 8 8 7 8 8 8 9 8 8 7 5 3 2 2 2 3 4 4 5 4 5 5 4 3 3 3 4 4 5 6 6 7 7 6 7 7 5 5 5 5 4 4 5 5 7 9 12 12 11 9 8 9 9 7 7 8 8 9 10 12 15 18 18 14 13 15 16 17 17 17 18 19 20 21 20 19 18 18
12 11 10 9 8 8 8 8 8 7 7 7 7 8 8 7 7 7 6 5 4 3 1 1 2 3 3 3 4 4 4 4 3 4 4 5 6 7 8 9 8 7 7 5 4 4 4 5 6 5 5 5 5 6 7 9 10 10 8 7 6 7 7 7 7 8 10 12 15 12 9 10 13 15 16 17 17 18 19 20 22 23 22 20 20
13 12 11 10 9 9 8 8 8 7 7 7 6 6 7 7 6 6 5 5 5 5 4 3 2 1 1 2 2 3 3 4 4 5 6 5 5 6 8 10 8 7 6 4 3 3 4 5 5 4 5 4 3 3 3 6 8 8 7 6 6 7 7 8 9 9 10 11 12 12 10 11 13 14 15 16 17 19 21 21 22 24 24 24 23
13 13 12 11 10 9 9 8 7 7 8 7 6 6 6 6 6 5 5 5 5 4 4 4 3 2 1 1 1 1 1 1 1 2 3 2 2 2 4 8 9 8 7 4 3 3 4 5 4 2 3 4 4 3 4 6 7 7 7 7 7 7 8 9 9 10 11 11 12 13 13 13 14 15 16 16 16 17 19 21 23 23 25 25 24
13 13 12 12 10 10 10 9 8 7 7 8 7 6 6 6 5 5 5 5 4 4 4 4 4 3 2 2 3 3 3 2 2 1 1 1 1 1 0 3 6 8 8 6 4 4 4 5 5 3 2 2 3 3 4 6 8 7 7 7 8 9 10 11 11 11 12 13 14 14 15 16 17 17 17 17 17 17 17 19 21 23 24 24 24
11 11 11 11 11 10 9 8 7 6 6 7 6 6 6 5 5 5 5 4 4 5 5 5 5 4 3 3 4 4 4 4 3 3 3 3 2 2 2 2 2 5 7 7 5 4 3 4 5 4 2 2 3 4 5 7 8 8 8 9 9 11 12 13 14 14 15 16 17 18 19 20 21 21 21 20 20 20 20 19 20 20 22 23 24
7 8 8 9 9 9 8 7 6 5 5 5 5 4 5 5 4 5 5 4 4 4 5 5 5 5 4 3 4 4 4 4 3 3 4 3 3 3 4 4 3 3 4 5 5 3 2 2 3 4 4 3 4 5 6 8 9 9 10 11 13 14 15 15 16 17 19 20 21 21 22 21 21 21 21 21 21 21 21 21 21 20 20 21 22
6 5 5 6 7 7 7 6 5 4 3 3 2 2 3 3 3 3 4 4 4 4 3 4 5 5 4 4 4 4 4 3 2 3 2 2 3 3 3 4 4 4 4 3 3 2 2 1 2 4 5 6 7 7 8 9 11 12 13 14 15 16 17 17 18 19 19 19 19 19 18 17 16 16 16 16 17 18 19 20 21 21 21 20 20
8 6 5 4 4 4 5 5 5 5 3 2 1 0 1 1 1 1 2 2 2 2 2 2 3 3 3 3 3 4 4 3 2 2 2 2 2 2 3 4 4 4 4 4 3 2 1 2 2 2 4 5 6 8 8 8 10 12 14 15 16 17 17 17 17 16 15 14 13 12 12 12 13 13 14 15 16 16 17 18 19 21 22 22 21
10 8 7 5 4 3 3 3 3 3 3 2 1 1 2 3 4 3 3 3 2 2 2 1 1 0 1 1 2 2 3 3 3 2 1 1 2 2 3 3 3 4 4 4 4 3 3 3 4 4 5 5 6 7 8 8 8 10 11 12 13 14 14 14 14 12 11 11 10 10 10 10 11 13 15 16 16 17 17 18 18 19 20 21 21
12 10 9 7 6 6 5 4 3 3 2 2 2 1 1 2 3 4 5 5 5 5 4 3 3 3 3 2 2 2 1 0 1 1 1 1 0 1 2 2 3 4 4 5 6 5 4 4 5 7 7 7 8 9 9 10 11 10 11 11 11 12 11 11 11 10 10 10 10 11 12 12 13 15 16 17 18 18 18 18 18 19 19 19 19
13 12 12 11 9 9 8 7 7 6 5 5 5 4 3 3 3 4 5 6 7 7 7 6 5 5 5 5 5 4 3 3 3 3 3 3 3 2 2 3 4 5 6 7 9 10 9 9 9 10 11 11 11 11 12 12 13 13 13 12 13 13 12 12 12 11 10 10 11 12 13 15 16 17 18 18 18 19 19 19 19 19 20 19 19
15 14 14 13 13 12 11 11 11 10 9 9 8 6 6 6 7 7 7 8 8 9 9 9 8 7 7 7 7 7 6 6 5 5 5 5 5 5 5 5 6 6 8 9 11 12 13 13 12 13 14 14 14 14 15 15 14 14 15 15 15 15 14 14 14 13 12 12 11 12 13 14 15 16 16 17 17 18 18 19 20 21 21 22 22
18 17 16 16 15 14 13 13 14 14 12 12 12 10 8 9 10 11 11 11 11 11 11 11 11 10 9 8 8 9 9 8 7 7 7 7 7 7 8 8 8 9 9 10 11 12 14 15 15 15 15 16 16 16 17 18 17 17 16 16 16 17 17 16 15 15 15 15 15 15 15 15 15 16 16 17 17 18 18 19 20 21 22 22 23
20 20 19 18 17 16 15 15 16 17 16 17 17 14 11 11 13 14 15 14 15 15 15 14 14 13 12 10 10 10 10 9 9 9 8 8 8 9 10 11 11 12 13 13 13 14 14 16 17 17 16 17 18 17 18 19 21 21 21 19 18 17 18 19 18 17 18 18 19 19 19 19 19 20 20 21 22 24 25 25 24 24 23 24 24
20 20 19 19 19 19 18 18 18 20 20 20 18 16 15 15 15 13 13 14 16 17 18 17 16 16 15 13 12 12 11 9 9 10 9 8 8 10 12 13 14 15 15 16 16 16 17 17 18 18 18 18 19 20 19 20 21 22 23 24 22 20 20 21 21 21 21 21 21 22 23 24 25 25 25 25 26 26 25 23 22 21 22 22 23
20 20 19 19 19 19 20 20 20 21 20 19 18 17 17 17 16 14 13 15 18 19 20 19 19 18 18 16 15 15 13 9 9 10 11 10 8 9 12 14 15 16 17 18 18 18 19 19 19 19 20 19 20 21 21 22 23 22 23 25 26 25 24 24 23 24 25 25 24 25 25 26 27 26 25 23 21 21 20 18 17 17 17 18 20
14 14 14 15 15 16 17 18 19 20 20 20 19 18 18 19 20 21 21 21 22 22 21 20 21 21 20 19 18 18 16 12 10 11 12 12 12 13 15 15 15 17 18 19 20 20 20 20 20 20 21 21 21 23 23 23 25 25 25 26 27 27 28 27 25 25 27 27 27 27 26 26 26 25 24 21 19 19 19 19 18 19 19 20 21
6 6 7 7 7 8 9 11 13 15 17 19 19 19 19 20 21 22 23 22 23 24 23 22 22 23 24 23 21 20 19 15 13 13 13 14 14 16 17 15 14 16 18 19 20 21 21 21 21 22 23 22 22 24 25 25 25 26 27 28 29 29 30 30 28 26 26 27 28 29 27 25 27 27 26 25 24 23 24 24 24 25 27 29 27
5 6 5 5 4 5 5 6 7 9 12 13 15 17 18 19 20 21 22 22 23 24 24 24 23 24 26 25 23 22 21 19 17 16 15 15 15 15 16 15 16 19 20 20 20 21 22 22 23 24 25 25 24 24 26 27 27 28 28 29 30 31 31 33 32 28 27 28 30 32 30 28 28 29 28 28 28 28 29 30 31 32 33 33 31
6 6 6 6 6 5 5 6 6 7 8 9 10 12 14 16 17 18 19 20 20 21 23 25 24 24 26 27 25 24 24 22 21 19 19 18 16 14 14 15 17 19 21 22 21 22 23 24 25 25 26 27 27 26 27 29 30 30 30 30 31 31 31 32 33 32 29 28 31 34 33 30 29 30 30 28 27 27 28 29 29 30 31 31 29
8 8 8 8 8 8 7 7 7 8 8 9 10 11 11 12 12 13 15 16 18 19 21 23 23 23 25 27 27 26 26 25 23 21 21 20 17 16 15 14 16 19 22 24 24 24 24 25 27 27 27 28 29 29 29 30 31 31 32 32 32 33 33 33 34 34 31 29 32 36 36 32 29 30 30 27 26 26 26 26 25 25 25 25 25
8 8 8 9 9 10 10 10 10 10 10 10 10 12 12 12 13 13 14 15 17 18 18 18 18 19 23 27 28 28 27 26 24 24 23 21 18 17 16 16 18 20 23 25 25 25 25 26 28 28 28 29 30 30 30 30 30 31 32 33 34 35 36 36 37 37 34 31 32 37 39 35 30 31 31 28 27 28 27 26 25 23 22 21 22
7 7 8 8 9 9 11 13 14 14 13 12 12 12 13 14 14 15 16 16 16 16 16 15 15 16 21 26 29 28 26 25 25 24 23 20 19 19 19 19 20 21 24 26 27 27 27 28 29 29 29 30 31 31 31 31 31 32 33 34 35 36 38 39 39 39 37 34 33 35 39 38 33 33 33 30 28 29 27 24 23 20 18 19 20
8 9 9 10 10 9 10 12 13 15 15 15 14 14 15 15 16 16 17 17 16 16 15 14 13 15 19 25 27 26 24 24 24 23 21 20 20 21 22 22 21 22 25 27 28 28 29 30 31 31 31 32 32 33 33 33 34 35 36 37 37 38 40 42 42 41 39 36 34 34 38 40 36 35 35 32 29 29 26 23 19 17 16 16 16
12 12 12 12 12 12 12 12 12 13 14 15 15 15 15 16 17 17 17 17 17 16 15 14 14 17 22 25 25 24 23 23 22 21 20 20 21 22 21 21 21 22 25 27 28 29 30 31 32 32 33 33 34 35 35 35 35 36 37 39 38 38 40 43 44 43 40 38 37 36 39 40 36 32 33 32 30 29 27 24 21 18 15 14 14
15 15 15 15 15 14 14 14 14 15 15 16 16 16 15 16 17 18 17 16 15 15 15 16 18 21 24 24 23 22 22 21 21 21 21 21 21 21 20 21 23 24 26 28 29 30 30 31 32 33 34 34 34 35 34 33 33 32 33 34 33 33 36 38 40 41 41 40 36 33 34 35 31 28 30 31 30 29 26 23 22 19 15 14 15
17 17 17 16 16 15 16 16 16 16 16 17 17 16 15 15 16 17 17 16 15 15 16 18 20 22 23 23 23 23 22 21 21 21 21 21 20 20 22 24 25 27 28 29 31 31 32 33 34 34 34 33 32 32 31 30 29 27 26 27 26 27 29 31 32 35 37 37 32 27 29 31 30 27 27 27 28 28 25 23 23 21 18 17 17
Wind_Direction
222 215 206 205 202 206 206 203 211 218 224 227 222 214 205 195 181 175 174 171 169 170 169 169 170 166 168 182 192 208 209 201 222 243 234 233 239 253 276 286 301 315 294 211 201 202 208 208 205 205 204 204 208 211 208 208 214 219 216 211 209 207 205 204 202 194 185 165 128 92 72 67 69 71 72 73 73 70 65 59 53 49 47 46 48
220 209 204 209 204 198 195 196 208 215 222 234 234 227 220 212 197 191 192 187 181 176 173 181 185 178 183 195 207 220 219 217 220 223 234 236 234 240 253 268 279 300 323 236 212 204 204 208 210 210 210 212 215 216 217 217 217 223 229 225 217 216 214 212 213 211 207 198 183 150 72 52 56 62 66 68 69 70 69 66 58 51 47 45 44
218 210 213 220 211 201 196 196 208 212 218 229 235 237 233 227 218 206 204 199 192 187 187 200 198 188 196 204 207 217 229 234 233 228 232 239 237 231 218 235 251 270 299 328 211 211 204 202 209 216 215 216 220 221 225 229 229 230 238 243 234 226 225 224 223 223 223 223 226 227 244 309 13 36 52 59 62 66 68 69 67 57 50 46 44
222 215 219 226 216 208 204 202 210 213 217 225 231 237 237 236 231 222 215 208 203 200 204 212 206 193 196 201 203 212 222 230 240 240 229 230 235 216 187 197 221 245 278 300 30 188 205 202 203 213 214 215 218 222 229 234 239 241 245 256 256 247 245 245 241 240 240 241 249 255 267 282 298 320 5 37 48 55 59 66 70 67 58 50 46
226 223 222 225 221 219 213 208 213 216 218 221 225 232 237 239 236 234 232 223 215 210 208 214 213 204 204 208 207 216 224 226 233 238 228 221 216 200 185 192 198 196 274 295 310 89 185 204 203 207 210 211 212 218 227 232 241 248 249 254 260 262 263 265 263 259 259 265 272 278 285 291 298 302 312 325 351 24 43 58 66 74 71 62 54
228 230 225 225 226 226 223 217 217 218 218 217 220 232 241 241 237 236 234 227 224 215 208 212 214 210 214 218 213 221 233 235 232 230 230 228 218 208 204 205 206 208 275 313 325 357 145 194 205 208 204 199 197 205 220 227 234 243 250 248 255 263 265 271 271 266 269 274 280 284 286 291 296 299 298 297 297 297 312 10 42 74 83 78 69
230 230 225 229 232 231 231 226 220 220 223 219 217 228 237 238 235 237 233 226 227 217 208 211 214 211 215 217 214 221 234 241 237 229 225 228 228 226 222 216 218 234 257 291 313 333 158 195 207 210 206 192 184 193 215 227 232 240 246 244 251 263 265 263 262 267 271 272 274 276 279 281 284 286 287 286 283 278 273 265 270 272 90 84 80
226 228 222 227 236 236 233 231 230 230 230 226 219 222 231 234 235 239 236 229 229 218 209 212 214 213 216 215 215 220 221 229 239 231 225 228 227 221 223 220 220 229 234 256 284 305 307 213 205 217 222 203 186 187 200 213 229 245 249 242 247 259 265 262 253 257 263 267 270 269 271 272 273 274 274 275 273 270 266 260 255 252 260 61 77
206 216 212 211 227 234 236 238 240 238 235 231 226 225 231 235 238 238 235 231 230 221 214 215 215 217 221 220 219 221 219 217 226 227 225 231 228 218 223 222 220 225 223 224 238 269 283 244 224 223 224 223 203 196 193 186 202 233 244 246 252 258 266 272 262 253 249 254 263 269 269 268 267 267 267 269 269 268 264 259 254 250 254 254 296
193 199 198 196 212 225 234 238 238 236 234 233 230 229 231 233 238 239 237 235 229 221 218 216 214 219 226 229 228 226 223 218 214 209 207 224 229 220 217 218 221 224 220 217 218 225 233 239 249 234 224 239 248 240 220 188 182 205 219 234 251 263 273 280 279 278 269 258 270 283 280 274 270 268 268 268 269 270 267 263 259 253 251 249 256
181 171 165 171 187 194 207 223 230 232 231 231 232 231 230 229 231 235 239 237 228 219 218 220 218 222 231 232 229 227 224 219 215 210 194 202 219 217 211 216 225 228 223 216 212 213 212 223 248 242 231 245 265 261 249 231 194 186 204 225 233 248 271 277 275 278 276 277 291 300 297 297 292 284 280 279 278 279 275 270 266 260 255 247 248
181 175 169 167 170 169 174 186 203 213 219 227 230 232 234 231 228 230 234 235 231 222 219 223 224 231 240 231 220 217 219 220 217 217 212 202 206 208 206 211 221 227 224 216 212 213 213 219 232 239 239 246 270 266 256 252 222 191 209 237 238 244 262 268 267 270 275 282 298 315 322 330 333 329 319 308 299 293 287 277 269 261 255 247 244
189 188 190 190 186 178 173 175 180 187 198 207 213 220 225 227 225 225 229 231 231 226 222 224 226 232 243 240 224 218 225 230 223 222 228 222 214 209 203 204 208 214 219 217 214 212 214 221 223 227 234 240 258 261 254 249 230 219 251 266 264 258 259 261 266 272 281 293 308 322 335 346 353 3 7 358 342 322 306 289 273 261 253 247 244
197 189 193 198 202 192 154 159 169 168 172 179 179 182 192 209 216 219 226 229 230 227 223 225 226 230 238 243 239 232 236 240 233 229 234 232 227 226 221 218 219 218 220 225 221 213 210 215 217 220 225 229 235 235 235 232 223 230 255 261 271 278 276 269 269 276 287 296 304 309 320 339 352 3 11 11 4 349 332 310 285 269 256 248 242
186 188 193 194 204 206 140 131 139 138 143 154 152 146 161 187 209 219 228 232 234 233 227 226 226 227 232 237 242 242 242 243 236 232 234 234 234 235 234 233 235 235 232 236 236 219 211 216 221 223 224 227 228 225 224 219 214 225 241 247 259 270 275 273 267 268 273 273 270 273 284 307 326 342 357 1 1 357 345 321 304 287 265 251 243
172 190 210 213 224 228 153 140 146 143 147 159 160 152 149 153 186 216 225 227 233 237 232 227 225 222 225 229 233 240 246 245 236 232 232 233 235 236 234 234 235 236 233 237 243 229 220 227 234 236 236 235 230 226 225 218 214 222 231 236 240 247 255 260 260 259 258 257 262 269 270 278 295 310 323 331 340 348 345 316 297 297 281 262 251
165 186 213 235 245 249 221 157 163 171 168 174 175 168 145 125 137 180 203 212 220 233 234 228 224 220 221 223 225 237 247 245 234 231 229 227 228 231 232 232 231 234 235 235 239 239 235 237 242 246 247 244 237 230 227 224 224 226 227 228 231 235 239 244 249 251 252 252 259 270 275 276 279 287 299 305 309 322 331 316 282 276 278 272 263
176 196 212 229 241 249 256 216 163 186 183 196 198 191 169 120 82 106 163 188 191 217 234 229 222 219 222 226 229 243 252 242 228 228 229 225 224 226 231 237 236 236 239 238 238 240 241 243 244 247 250 249 243 236 230 229 231 231 228 229 234 237 237 238 240 242 249 252 254 260 269 274 274 275 281 287 291 297 308 310 286 267 264 265 268
194 208 212 213 222 235 243 229 206 190 204 237 243 244 258 267 285 53 103 148 147 162 198 207 212 218 222 224 228 237 245 238 227 227 238 230 224 225 232 241 242 241 243 245 243 242 245 246 244 247 253 250 241 237 233 230 231 234 237 240 243 245 244 242 245 245 244 250 254 255 259 263 265 268 270 275 281 284 289 294 290 275 264 261 263
185 200 203 200 205 213 212 196 202 226 241 244 248 260 268 265 256 243 226 148 134 142 159 161 174 204 212 212 221 231 233 233 226 224 236 233 223 225 230 235 237 240 245 249 252 250 250 253 251 248 245 240 235 232 232 230 230 233 240 248 250 253 251 248 250 251 247 247 250 252 255 256 258 262 265 266 269 274 279 283 283 281 274 267 264
150 163 179 188 189 174 155 134 130 166 224 233 240 253 259 252 243 242 244 207 158 155 162 147 142 166 182 187 201 215 220 223 219 217 222 216 203 209 220 221 215 217 225 235 251 247 247 256 258 253 246 243 245 243 242 246 247 240 237 244 250 253 252 247 246 250 251 250 250 250 252 252 255 259 261 262 263 266 270 273 274 274 274 273 270
130 134 150 165 159 133 121 109 98 96 95 97 107 117 232 227 237 246 244 231 201 187 193 177 162 163 165 173 185 194 204 211 209 208 208 203 196 194 203 211 201 190 182 187 191 207 233 239 245 257 259 254 256 257 254 256 258 266 277 271 263 259 255 254 252 252 254 254 254 252 248 246 251 255 258 262 265 267 268 269 269 269 270 273 272
124 123 126 134 130 115 110 109 105 99 94 91 89 83 82 92 111 209 228 240 246 245 265 268 232 206 199 201 205 197 190 194 193 192 193 196 203 199 194 194 189 176 160 158 165 162 168 200 227 256 268 255 256 258 252 240 236 267 290 283 277 271 265 264 262 261 260 257 254 248 243 246 252 254 257 261 264 267 271 272 270 266 266 270 270
127 123 119 119 116 109 109 112 111 106 102 99 98 92 87 86 89 102 138 187 217 241 267 273 257 236 220 216 225 224 210 206 198 191 190 197 205 203 192 184 176 170 170 179 194 186 177 190 211 235 250 251 254 254 248 240 234 249 264 263 265 266 263 262 261 262 263 264 263 257 249 253 257 256 258 260 261 264 268 270 270 267 263 265 267
129 127 124 122 120 117 113 113 113 110 104 101 101 99 93 89 91 95 105 116 119 121 127 192 239 247 238 224 232 238 238 246 254 258 261 251 239 226 207 195 178 169 182 195 205 208 204 206 213 231 253 256 252 245 236 232 230 232 230 224 235 250 257 263 265 264 263 267 276 284 280 269 268 268 268 266 265 265 264 263 265 265 263 262 263
128 127 125 124 124 121 114 108 106 103 101 102 104 103 98 93 91 93 99 105 105 107 109 109 118 149 260 251 242 244 249 258 273 282 284 281 271 247 222 209 195 185 192 182 176 211 196 175 195 232 254 258 261 241 201 199 203 202 204 214 233 250 263 271 273 271 270 271 277 288 290 281 277 278 277 276 273 270 269 266 265 265 265 264 263
127 123 121 119 116 112 109 103 97 94 97 105 112 109 102 96 89 89 96 99 101 107 111 113 115 125 140 138 149 155 171 229 265 284 290 297 299 268 226 213 209 206 201 172 155 191 173 148 157 204 238 261 281 262 215 205 199 197 212 223 227 240 254 262 267 271 275 279 280 284 285 283 280 278 277 277 275 272 272 271 269 267 266 265 267
132 126 121 118 114 108 104 99 94 88 89 98 109 109 103 98 92 88 88 91 96 104 107 109 116 130 143 132 127 128 120 111 108 118 104 35 6 3 314 212 206 202 192 172 155 164 160 157 160 165 210 254 264 238 219 220 218 215 220 222 226 240 251 256 263 270 276 281 284 285 285 284 283 281 279 276 273 271 270 270 269 269 267 267 267
141 135 126 120 115 108 102 97 94 88 81 83 92 101 104 104 103 100 97 93 99 106 105 103 110 120 130 132 130 125 118 113 108 111 109 95 83 71 68 102 161 181 180 174 171 172 169 174 180 182 183 208 217 209 209 218 224 225 224 228 238 250 259 266 271 276 279 282 283 283 284 284 283 281 280 278 275 271 269 268 268 268 267 267 267
157 146 135 129 123 115 107 100 94 91 85 75 72 87 101 111 119 116 113 115 108 102 101 100 102 107 113 118 117 110 102 100 102 103 106 107 100 90 89 95 104 123 148 168 185 202 210 196 226 238 236 252 258 243 237 237 238 239 239 243 252 261 268 274 278 280 282 283 285 285 285 283 282 280 278 276 273 270 267 265 264 264 265 266 266
195 179 153 139 132 126 120 114 112 112 107 91 70 60 82 104 123 125 123 123 113 107 109 102 95 99 106 104 97 94 87 72 71 76 78 88 90 91 91 83 81 84 90 118 156 216 263 294 315 291 280 282 285 278 268 261 258 258 258 259 263 268 273 277 280 283 285 287 289 291 289 284 279 275 273 270 268 266 265 264 263 263 263 264 265
211 210 202 174 150 144 141 138 140 142 148 147 135 229 287 277 245 171 163 152 130 132 144 122 95 91 105 111 102 99 101 92 72 65 63 65 61 73 82 74 71 72 70 74 84 82 35 6 12 334 308 300 297 291 280 272 269 267 266 267 268 269 272 275 278 280 282 284 287 291 291 286 277 272 269 267 265 263 264 265 266 265 264 264 265
216 216 216 208 203 203 189 175 163 153 152 146 145 239 277 276 268 259 253 244 226 214 210 197 176 69 89 143 155 123 108 98 81 74 82 90 86 78 70 60 55 47 42 37 36 55 53 17 3 347 328 316 310 303 291 283 280 277 275 275 274 273 273 273 274 275 276 280 285 289 289 284 276 271 270 268 266 264 265 267 269 268 266 264 265
223 223 222 222 229 235 235 239 237 214 191 182 185 216 262 263 259 264 269 266 261 256 253 253 257 266 273 265 244 224 177 89 30 8 337 318 23 68 37 12 14 2 353 351 343 339 344 342 339 336 330 323 320 318 309 300 295 290 286 283 282 280 279 279 279 282 287 289 291 291 289 286 281 278 275 272 269 267 267 269 271 272 270 267 266
229 229 227 229 233 236 243 251 252 253 252 247 250 260 253 235 240 267 284 290 287 277 268 264 266 269 273 278 275 260 249 253 265 278 293 299 301 309 312 316 332 332 322 319 320 320 322 326 331 332 331 329 325 323 319 312 307 303 297 292 288 285 283 282 281 283 288 290 292 292 291 289 286 283 280 276 273 271 270 270 271 271 271 269 268
229 229 230 233 234 233 238 248 255 262 269 270 268 274 276 261 255 265 279 289 292 291 285 277 273 273 271 272 277 274 266 264 267 272 281 292 297 295 296 302 309 311 309 307 309 312 314 318 325 328 327 326 325 323 318 312 309 308 306 304 301 296 292 290 288 287 286 284 285 287 286 284 282 279 279 280 279 276 275 273 272 271 269 268 268
232 233 235 239 239 235 238 245 251 255 269 281 277 272 279 279 272 269 270 274 277 278 279 280 280 279 272 266 268 270 269 271 275 280 285 294 304 303 301 301 301 301 301 300 301 304 307 311 315 318 320 319 318 319 317 313 310 307 305 307 307 303 300 298 296 294 292 290 287 285 282 279 277 278 280 282 282 280 279 277 274 272 270 268 267
235 238 242 247 247 244 244 247 249 252 266 281 280 270 266 268 272 272 268 270 272 269 266 270 275 277 275 266 260 260 261 264 269 278 290 301 310 313 307 301 298 298 298 297 298 300 303 306 309 311 312 313 313 313 313 313 312 310 308 306 305 303 301 299 296 291 288 287 287 286 286 283 282 283 284 285 285 284 282 280 276 274 272 270 268
238 243 250 257 255 250 251 252 254 260 269 275 275 268 261 261 265 269 267 268 271 268 263 263 267 271 271 267 262 258 256 260 263 269 282 294 302 308 307 303 301 300 299 299 301 303 304 304 306 307 308 310 311 310 310 310 309 308 307 305 303 301 298 297 296 293 288 285 283 282 282 282 281 282 283 284 284 281 279 277 274 272 271 270 269
247 252 258 263 261 258 258 259 260 264 267 269 269 265 262 260 261 267 273 272 272 272 265 260 262 266 266 265 264 259 258 267 274 269 270 278 287 300 304 303 303 302 302 303 305 306 306 306 306 306 307 308 308 306 306 306 306 305 305 306 305 303 301 299 300 299 295 292 289 285 282 282 281 281 282 282 279 275 272 269 266 265 266 268 267
250 253 257 258 260 262 263 263 263 264 264 266 267 266 263 263 264 268 272 271 271 274 270 260 256 258 260 262 264 263 261 267 281 280 274 276 287 302 304 297 293 296 300 304 307 307 306 306 305 305 304 304 304 305 305 307 309 308 307 306 304 303 301 299 298 300 299 297 294 289 286 283 283 282 282 280 277 273 271 268 265 263 265 270 270
234 240 247 251 259 268 272 271 269 267 267 268 268 267 265 265 266 266 267 267 270 274 271 261 255 253 254 257 260 264 264 262 271 281 276 274 286 301 300 290 287 296 301 302 304 305 305 305 304 304 303 302 303 306 307 307 307 306 305 304 303 302 301 299 296 296 298 299 296 291 287 285 284 282 279 278 276 273 271 269 267 266 268 273 274
227 233 239 250 266 284 297 301 293 283 278 274 272 270 266 264 264 264 266 269 272 273 269 263 257 251 250 253 256 259 260 257 258 264 263 263 275 289 292 289 294 301 302 301 302 302 302 301 301 302 303 303 303 305 306 306 305 305 305 304 303 303 303 302 300 298 298 300 298 293 290 289 290 288 284 281 280 276 274 272 271 271 274 276 276
241 246 251 255 263 273 285 298 304 300 291 284 278 273 268 265 264 265 268 271 272 272 267 262 257 250 248 251 253 255 256 253 251 253 255 257 265 275 281 286 294 300 301 303 302 300 299 299 300 302 303 304 304 306 308 308 306 306 306 304 304 303 302 301 301 300 300 302 301 297 291 289 293 294 290 289 289 287 283 280 279 277 277 278 279
258 262 267 267 268 272 274 278 284 286 288 288 285 278 271 271 272 271 271 272 271 269 266 263 261 255 250 250 251 252 250 246 245 248 251 254 264 273 277 284 296 302 304 303 301 298 298 299 301 302 303 304 305 307 307 306 305 304 304 302 302 302 301 300 300 300 301 302 303 301 295 291 294 295 292 292 294 295 294 292 289 285 283 283 281
268 271 274 274 274 274 274 276 277 278 279 282 283 280 277 281 286 283 277 276 274 272 271 271 269 261 253 250 248 246 242 240 243 247 250 256 266 275 279 287 298 304 304 300 296 293 294 296 297 298 300 300 301 302 302 302 302 302 302 301 300 300 299 300 299 299 301 302 303 302 298 295 296 296 294 293 293 295 297 296 295 294 292 286 280
274 282 285 284 282 277 272 271 272 275 275 274 276 280 282 286 289 288 283 281 280 278 277 277 272 262 253 247 243 240 240 242 245 248 254 263 273 280 285 289 294 299 299 294 290 290 292 294 295 296 297 297 298 299 300 301 301 301 300 299 298 298 297 297 296 297 298 299 299 298 296 295 296 295 295 297 295 294 295 297 299 298 292 285 281
282 284 284 284 285 282 276 271 269 269 270 270 272 277 282 285 287 290 289 287 288 288 286 281 271 256 244 241 241 242 242 244 247 251 260 268 274 279 284 286 287 290 291 288 287 290 292 293 294 295 296 297 298 299 300 300 299 299 297 294 293 294 293 292 292 293 295 295 295 294 293 294 296 296 296 297 296 294 294 295 296 292 285 282 282
289 286 285 285 287 287 286 283 278 275 271 270 271 275 279 282 284 288 291 290 290 289 283 272 256 240 233 235 239 241 240 240 246 254 261 266 271 275 278 281 281 283 284 285 287 288 289 290 291 293 294 296 296 297 297 296 296 295 294 292 292 292 290 289 290 291 292 292 291 292 292 293 297 299 296 295 294 294 294 293 290 286 282 278 278
282 280 281 283 285 286 286 286 285 282 279 276 275 276 278 280 280 283 286 286 284 279 269 257 245 236 233 234 235 236 237 242 251 259 264 268 271 274 278 280 280 281 284 285 285 285 285 285 287 289 290 292 292 292 293 293 292 293 292 292 292 291 289 288 289 290 290 290 291 292 293 293 296 298 298 298 296 293 293 292 288 284 278 270 271
275 274 276 280 281 279 280 282 283 283 282 282 282 283 283 281 278 278 279 278 274 268 260 252 244 237 235 235 235 237 243 252 260 266 270 271 273 277 280 281 282 284 285 284 284 284 285 286 288 289 290 291 292 292 292 292 291 291 290 291 292 293 292 291 291 291 289 288 290 292 291 291 295 298 301 304 302 297 295 295 291 286 278 271 270